JST221 YSSY-NZQN

Flight info

Callsign JST221
Flight time N/A
Altitude 41000
Route OPTIC Y84 TONIM P766 ADKOS
Aircraft A359/H-SDE2E3GHIJ3J4J5LM1ORWXY/LB1D1

Departure

Time 2026-04-21 10:45
Airport Sydney Kingsford Smith International Airport (YSSY)

Arrival

Time N/A
Airport Queenstown Airport (NZQN)
Time Latitude Longitude Altitude Speed Heading
2026-04-21 10:17 -33.94064 151.16383 36 ft 0 kts 43°
2026-04-21 10:26 -33.94069 151.16378 35 ft 0 kts 43°
2026-04-21 10:26 -33.94073 151.16373 36 ft 1 kts 43°
2026-04-21 10:27 -33.94079 151.16365 33 ft 1 kts 43°
2026-04-21 10:27 -33.94084 151.16359 33 ft 1 kts 43°
2026-04-21 10:27 -33.94085 151.16358 33 ft 0 kts 43°
2026-04-21 10:28 -33.94086 151.16358 34 ft 0 kts 45°
2026-04-21 10:28 -33.94089 151.16355 34 ft 1 kts 56°
2026-04-21 10:29 -33.94092 151.16350 33 ft 1 kts 69°
2026-04-21 10:29 -33.94096 151.16335 33 ft 3 kts 97°
2026-04-21 10:29 -33.94090 151.16315 34 ft 2 kts 126°
2026-04-21 10:29 -33.94080 151.16299 35 ft 3 kts 148°
2026-04-21 10:30 -33.94064 151.16290 36 ft 2 kts 157°
2026-04-21 10:30 -33.94048 151.16283 35 ft 3 kts 182°
2026-04-21 10:30 -33.94041 151.16284 35 ft 0 kts 190°
2026-04-21 10:32 -33.94042 151.16283 35 ft 1 kts 190°
2026-04-21 10:32 -33.94065 151.16282 35 ft 6 kts 183°
2026-04-21 10:33 -33.94118 151.16288 36 ft 10 kts 171°
2026-04-21 10:33 -33.94170 151.16344 36 ft 11 kts 106°
2026-04-21 10:33 -33.94152 151.16450 36 ft 16 kts 74°
2026-04-21 10:33 -33.94122 151.16582 36 ft 17 kts 75°
2026-04-21 10:34 -33.94088 151.16729 36 ft 20 kts 75°
2026-04-21 10:34 -33.94049 151.16897 36 ft 22 kts 74°
2026-04-21 10:34 -33.94004 151.17088 36 ft 25 kts 74°
2026-04-21 10:34 -33.93988 151.17154 36 ft 1 kts 74°
2026-04-21 10:35 -33.93981 151.17183 36 ft 6 kts 73°
2026-04-21 10:35 -33.93963 151.17257 35 ft 12 kts 74°
2026-04-21 10:35 -33.93959 151.17273 35 ft 0 kts 74°
2026-04-21 10:37 -33.93958 151.17279 35 ft 3 kts 73°
2026-04-21 10:37 -33.93943 151.17341 33 ft 12 kts 74°
2026-04-21 10:37 -33.93915 151.17459 33 ft 14 kts 74°
2026-04-21 10:37 -33.93895 151.17544 35 ft 10 kts 74°
2026-04-21 10:38 -33.93888 151.17576 35 ft 0 kts 74°
2026-04-21 10:38 -33.93887 151.17577 35 ft 1 kts 74°
2026-04-21 10:38 -33.93879 151.17612 35 ft 8 kts 74°
2026-04-21 10:38 -33.93857 151.17704 36 ft 10 kts 73°
2026-04-21 10:39 -33.93856 151.17712 36 ft 2 kts 81°
2026-04-21 10:39 -33.93863 151.17743 36 ft 4 kts 125°
2026-04-21 10:39 -33.93899 151.17773 36 ft 8 kts 157°
2026-04-21 10:39 -33.93967 151.17797 34 ft 14 kts 165°
2026-04-21 10:40 -33.94080 151.17826 35 ft 20 kts 168°
2026-04-21 10:40 -33.94229 151.17864 36 ft 24 kts 168°
2026-04-21 10:40 -33.94406 151.17908 36 ft 26 kts 175°
2026-04-21 10:40 -33.94567 151.17893 34 ft 23 kts 171°
2026-04-21 10:41 -33.94737 151.17937 36 ft 27 kts 168°
2026-04-21 10:41 -33.94906 151.17982 36 ft 8 kts 167°
2026-04-21 10:41 -33.94948 151.17993 36 ft 1 kts 167°
2026-04-21 10:41 -33.94959 151.17996 36 ft 1 kts 168°
2026-04-21 10:42 -33.94974 151.18000 36 ft 5 kts 169°
2026-04-21 10:42 -33.95042 151.18017 37 ft 13 kts 166°
2026-04-21 10:42 -33.95095 151.18104 37 ft 16 kts 93°
2026-04-21 10:42 -33.95071 151.18271 37 ft 26 kts 79°
2026-04-21 10:43 -33.95026 151.18517 36 ft 34 kts 78°
2026-04-21 10:43 -33.94988 151.18722 34 ft 0 kts 77°
2026-04-21 10:43 -33.94988 151.18725 34 ft 2 kts 77°
2026-04-21 10:43 -33.94991 151.18707 35 ft 2 kts 77°
2026-04-21 10:44 -33.94992 151.18703 35 ft 0 kts 77°
2026-04-21 10:44 -33.94993 151.18699 35 ft 1 kts 77°
2026-04-21 10:44 -33.94988 151.18727 34 ft 10 kts 80°
2026-04-21 10:45 -33.95022 151.18832 31 ft 17 kts 146°
2026-04-21 10:45 -33.95269 151.18908 29 ft 74 kts 168°
2026-04-21 10:45 -33.96032 151.19107 51 ft 145 kts 168°
2026-04-21 10:45 -33.97012 151.19316 871 ft 144 kts 170°
2026-04-21 10:46 -33.97936 151.19750 1753 ft 148 kts 137°
2026-04-21 10:46 -33.98520 151.20774 2689 ft 154 kts 127°
2026-04-21 10:46 -33.99182 151.21970 3124 ft 190 kts 129°
2026-04-21 10:46 -34.00020 151.23338 3612 ft 214 kts 129°
2026-04-21 10:47 -34.01038 151.24795 3989 ft 238 kts 139°
2026-04-21 10:47 -34.02333 151.26102 4607 ft 246 kts 143°
2026-04-21 10:47 -34.03689 151.27393 4924 ft 249 kts 143°
2026-04-21 10:47 -34.05033 151.28679 5098 ft 251 kts 143°
2026-04-21 10:48 -34.06406 151.30005 5771 ft 254 kts 143°
2026-04-21 10:48 -34.07788 151.31347 6792 ft 254 kts 143°
2026-04-21 10:48 -34.09166 151.32691 7766 ft 256 kts 142°
2026-04-21 10:48 -34.10567 151.34060 8688 ft 262 kts 143°
2026-04-21 10:49 -34.11993 151.35457 9647 ft 265 kts 142°
2026-04-21 10:49 -34.13421 151.36919 10537 ft 271 kts 136°
2026-04-21 10:49 -34.14670 151.38646 11224 ft 286 kts 129°
2026-04-21 10:49 -34.15857 151.40703 11592 ft 311 kts 125°
2026-04-21 10:50 -34.17029 151.43016 11939 ft 334 kts 122°
2026-04-21 10:50 -34.18225 151.45492 12467 ft 347 kts 122°
2026-04-21 10:50 -34.19452 151.48034 13277 ft 352 kts 123°
2026-04-21 10:50 -34.20709 151.50594 14095 ft 357 kts 123°
2026-04-21 10:51 -34.22001 151.53178 14802 ft 362 kts 123°
2026-04-21 10:51 -34.23325 151.55791 15536 ft 366 kts 124°
2026-04-21 10:51 -34.24676 151.58434 16280 ft 371 kts 124°
2026-04-21 10:51 -34.26043 151.61100 17006 ft 376 kts 124°
2026-04-21 10:52 -34.27429 151.63802 17750 ft 380 kts 124°
2026-04-21 10:52 -34.28829 151.66534 18505 ft 384 kts 124°
2026-04-21 10:52 -34.30227 151.69266 19142 ft 389 kts 125°
2026-04-21 10:52 -34.31655 151.72063 19799 ft 393 kts 125°
2026-04-21 10:53 -34.33098 151.74892 20485 ft 396 kts 125°
2026-04-21 10:53 -34.34551 151.77744 21178 ft 400 kts 125°
2026-04-21 10:53 -34.36022 151.80632 21878 ft 404 kts 126°
2026-04-21 10:53 -34.37501 151.83541 22563 ft 408 kts 126°
2026-04-21 10:54 -34.38997 151.86477 23237 ft 412 kts 126°
2026-04-21 10:54 -34.40641 151.89320 23906 ft 413 kts 131°
2026-04-21 10:54 -34.42417 151.92069 24457 ft 416 kts 133°
2026-04-21 10:54 -34.44249 151.94804 25029 ft 420 kts 134°
2026-04-21 10:55 -34.46115 151.97535 25600 ft 422 kts 134°
2026-04-21 10:55 -34.48007 152.00281 26158 ft 426 kts 134°
2026-04-21 10:55 -34.49918 152.03051 26688 ft 430 kts 134°
2026-04-21 10:55 -34.51849 152.05854 27223 ft 434 kts 134°
2026-04-21 10:56 -34.53790 152.08681 27765 ft 438 kts 134°
2026-04-21 10:56 -34.55744 152.11536 28299 ft 441 kts 134°
2026-04-21 10:56 -34.57709 152.14414 28816 ft 445 kts 135°
2026-04-21 10:56 -34.59696 152.17326 29317 ft 449 kts 135°
2026-04-21 10:57 -34.61695 152.20261 29833 ft 452 kts 135°
2026-04-21 10:57 -34.63704 152.23214 30323 ft 456 kts 135°
2026-04-21 10:57 -34.65731 152.26195 30715 ft 459 kts 135°
2026-04-21 10:57 -34.67771 152.29197 31099 ft 463 kts 135°
2026-04-21 10:58 -34.69827 152.32226 31477 ft 465 kts 134°
2026-04-21 10:58 -34.71864 152.35229 31839 ft 468 kts 134°
2026-04-21 10:58 -34.73940 152.38293 32188 ft 471 kts 134°
2026-04-21 10:58 -34.76028 152.41377 32521 ft 473 kts 134°
2026-04-21 10:59 -34.78133 152.44487 32840 ft 476 kts 134°
2026-04-21 10:59 -34.80243 152.47609 33161 ft 479 kts 134°
2026-04-21 10:59 -34.82360 152.50745 33556 ft 479 kts 134°
2026-04-21 10:59 -34.84475 152.53883 34081 ft 477 kts 134°
2026-04-21 11:00 -34.86572 152.56999 34572 ft 474 kts 135°
2026-04-21 11:00 -34.88638 152.60072 34945 ft 474 kts 135°
2026-04-21 11:00 -34.90727 152.63178 35258 ft 474 kts 135°
2026-04-21 11:00 -34.92817 152.66288 35594 ft 474 kts 135°
2026-04-21 11:01 -34.94902 152.69393 35928 ft 473 kts 135°
2026-04-21 11:01 -34.96989 152.72503 36280 ft 473 kts 135°
2026-04-21 11:01 -34.99067 152.75604 36629 ft 472 kts 135°
2026-04-21 11:02 -35.03221 152.81810 37221 ft 472 kts 135°
2026-04-21 11:02 -35.05294 152.84911 37559 ft 471 kts 135°
2026-04-21 11:02 -35.07365 152.88012 37904 ft 470 kts 135°
2026-04-21 11:02 -35.09406 152.91071 38189 ft 470 kts 135°
2026-04-21 11:03 -35.11473 152.94170 38448 ft 470 kts 135°
2026-04-21 11:03 -35.13538 152.97270 38702 ft 470 kts 135°
2026-04-21 11:03 -35.15601 153.00369 38963 ft 470 kts 135°
2026-04-21 11:03 -35.17661 153.03466 39177 ft 470 kts 135°
2026-04-21 11:04 -35.19726 153.06574 39354 ft 470 kts 135°
2026-04-21 11:04 -35.21791 153.09684 39554 ft 470 kts 135°
2026-04-21 11:04 -35.23853 153.12792 39730 ft 471 kts 135°
2026-04-21 11:04 -35.25915 153.15905 39938 ft 471 kts 135°
2026-04-21 11:05 -35.27980 153.19023 40129 ft 471 kts 135°
2026-04-21 11:05 -35.30037 153.22133 40308 ft 471 kts 135°
2026-04-21 11:05 -35.34167 153.28383 40616 ft 471 kts 135°
2026-04-21 11:06 -35.35534 153.30455 40727 ft 472 kts 135°
2026-04-21 11:06 -35.38295 153.34642 40931 ft 472 kts 135°
2026-04-21 11:06 -35.41727 153.39854 41187 ft 472 kts 135°
2026-04-21 11:07 -35.43790 153.42991 41301 ft 473 kts 135°
2026-04-21 11:07 -35.45855 153.46134 41328 ft 473 kts 135°
2026-04-21 11:07 -35.49990 153.52437 41321 ft 473 kts 135°
2026-04-21 11:08 -35.54093 153.58699 41318 ft 473 kts 135°
2026-04-21 11:08 -35.58212 153.64999 41317 ft 473 kts 135°